Regional Weather Roundup
Issued by NWS

Home | Current Version | Previous Version | Text Only | Print | Product List | Glossary Off
Versions: 1 2 3 4 5 6 7 8 9 10 11 12 13 14 15 16 17 18 19 20 21 22 23 24 25 26 27 28 29 30 31 32 33 34 35 36 37 38 39 40 41 42 43 44 45 46 47 48 49 50

000
ASUS43 KLSX 282107
RWRMO

WEATHER SUMMARY FOR MISSOURI
NATIONAL WEATHER SERVICE SPRINGFIELD MO
400 PM CDT THU JUL 28 2016

NOTE: "FAIR" INDICATES FEW OR NO CLOUDS BELOW 12,000 FEET WITH NO
       SIGNIFICANT WEATHER AND/OR OBSTRUCTIONS TO VISIBILITY.
       CURRENT SKY AND/OR WEATHER CONDITIONS ARE NOT AVAILABLE FOR
       CHILLICOTHE AND FARMINGTON.

MOZ001>031-035>038-043-044-053-054-282200-
...NORTHERN AND WESTERN MISSOURI...

CITY           SKY/WX    TMP DP  RH WIND       PRES   REMARKS
KANSAS CTY INT MOSUNNY   89  68  49 N9        29.94F HX  93
KANSAS C DTWN  PTSUNNY   88  68  51 N9        29.92F HX  91
LEE`S SUMMIT   MOSUNNY   89  68  49 N12       29.93F HX  93
ST JOSEPH      SUNNY     87  66  49 NW10      29.95F
CHILLICOTHE      N/A     89  65  44 N9        29.93F HX  91
KIRKSVILLE     MOSUNNY   88  66  48 NE12      29.94R HX  90

$$
MOZ066>068-077>081-088>096-101>105-282200-
...SOUTHWEST MISSOURI...

CITY           SKY/WX    TMP DP  RH WIND       PRES   REMARKS
SPRINGFIELD    PTSUNNY   87  71  58 SW8       29.93F THUNDER HX  93
JOPLIN         PTSUNNY   90  70  51 NW7       29.93F HX  95
BRANSON        MOSUNNY   90  72  55 NW6       29.95F HX  96

$$
MOZ032>034-039>042-045>050-055>058-069>072-282200-
...CENTRAL MISSOURI...

CITY           SKY/WX    TMP DP  RH WIND       PRES   REMARKS
COLUMBIA       MOSUNNY   88  71  57 NW7       29.90F HX  94
JEFFERSON CITY MOSUNNY   85  75  72 S7        29.88F HX  93
ROLLA          LGT RAIN  72  68  87 NW3       29.92F
SEDALIA        SUNNY     89  71  55 N7        29.92F HX  95
OSAGE BEACH    TSTM      75  72  90 SE5       29.93R FOG

$$
MOZ051-052-059>065-282200-
...EAST CENTRAL MISSOURI...

CITY           SKY/WX    TMP DP  RH WIND       PRES   REMARKS
ST LOUIS INTL  CLOUDY    90  71  53 NW12      29.86F HX  96
SPIRIT OF STL  CLOUDY    89  72  56 NW9       29.85F HX  96
ST CHARLES     SUNNY     88  73  61 NW8       29.84F HX  95

$$
MOZ072>076-082>087-097>100-106>115-282200-
...SOUTH CENTRAL AND SOUTHEAST MISSOURI...

CITY           SKY/WX    TMP DP  RH WIND       PRES   REMARKS
CAPE GIRARDEAU CLOUDY    78  71  79 SW6       29.87F
FARMINGTON     MOSUNNY   88  74  63 VRB3      29.89F HX  96
POPLAR BLUFF   HVY RAIN  74  69  85 NE24G32   29.91R
WEST PLAINS    SUNNY     91  68  46 CALM      29.94F HX  95

$$


USA.gov is the U.S. government's official web portal to all federal, state and local government web resources and services.